Location: Cardiff
(53.7833°N, 113.6000°W)
Time: 06:48:00
(UTC+00:00)

SO-50 - Pass Details

Date: 09 December 2023
Orbit: 608 x 660 km, 64.6° (Epoch: 02 March)

Event Time Altitude Azimuth Distance (km) Brightness Sun altitude
Exits shadow 12:54:02 26° 356° (N) 1,281 ? -23.0°
Drops below altitude 10° 12:57:18 10° 40° (NE) 2,033 ? -22.5°
Sets 12:59:53 0° 53° (NE) 2,932 ? -22.1°
